SBFZSBBE

Guest
Details From SBFZ - Pinto Martins
To SBBE - Val De Caes Intl
Flight Number -
Tags decoded
Created
Modified
Stats Distance 614 nm / 1,137 km
Max Altitude 0 ft / 0 m
Waypoints 3
Social Downloads 2
Likes 0
Share VATSIM

Download

Looking for another format? Having issues loading an existing format? Contact us
Advertisement - Login to hide

Notes

Requested: SBFZ UW33 JANES BE393 SBBE Unmatched points: UW33 BE393

Route

SBFZ JANES SBBE

ID Type Via Altitude Latitude Longitude Leg Dist Tot Dist Heading (true) Name
O SBFZ APT - 0 ft / 0 m -3.77628˚ -38.53256˚ - 0 nm - Pinto Martins
JANES FIX - 0 ft / 0 m -1.56750˚ -47.83817˚ 573 nm 573 nm 283° / 284° -
O SBBE APT - 0 ft / 0 m -1.38078˚ -48.47619˚ 39 nm 613 nm 286° / 286° Val De Caes Intl

Altitude Profile

Advertisement - Login to hide

Weather


0- 5 10 15 20 25 30 35+ Temperature / ° C

Clouds and Precipitation
Forecast for 2017-11-24 06:00 UTC. Updated 2 hours ago

Ground ~20,000 ft ~40,000 ft Winds

SBFZ

Details ICAO SBFZ (FOR)
Name Pinto Martins
Region Brazil
Timezone America/Fortaleza (UTC-3.0)
Stats Elevation 82 ft / 25 m (AMSL)
Location -3.776283° -38.532556°
Runways 1
Magnetic Variation 21.128° W

METAR

SBFZ 240300Z 07009KT 9999 BKN019 27/23 Q1012

Decode

TAF

TAF SBFZ 232200Z 2400/2424 09010KT 9999 SCT018 TN26/2408Z TX31/2414Z BECMG 2408/2410 09015KT BKN020 BECMG 2412/2414 08016KT SCT020 RMK PEA

Decode

Departure Runways

ID Width Length Bearing (true) Bearing (mag) Surface Threshold Offset Overrun Length
13 148 ft / 45 m 8,360 ft / 2,548 m 104.88° 126.01° Asphalt 0 ft / 0 m 195 ft / 59 m
31 148 ft / 45 m 8,360 ft / 2,548 m 284.88° 306.01° Asphalt 0 ft / 0 m 125 ft / 38 m

SBBE

Details ICAO SBBE (BEL)
Name Val De Caes Intl
Region Brazil
Timezone America/Belem (UTC-3.0)
Stats Elevation 54 ft / 16 m (AMSL)
Location -1.380776° -48.476189°
Runways 2
Magnetic Variation 20.143° W

METAR

SBBE 240300Z 07009KT CAVOK 26/22 Q1011

Decode

TAF

TAF TAF SBBE 232200Z 2400/2424 03005KT 9999 FEW035 FEW040TCU TN24/2406Z TX31/2415Z BECMG 2402/2404 08005KT CAVOK BECMG 2409/2411 07010KT 9999 FEW015 BECMG 2413/2415 BKN025 RMK PEN

Decode

Destination Runways

ID Width Length Bearing (true) Bearing (mag) Surface Threshold Offset Overrun Length
02 148 ft / 45 m 6,023 ft / 1,836 m 4.48° 24.62° Asphalt 0 ft / 0 m 194 ft / 59 m
06 148 ft / 45 m 9,215 ft / 2,809 m 45.30° 65.44° Asphalt 0 ft / 0 m 0 ft / 0 m
20 148 ft / 45 m 6,023 ft / 1,836 m 184.48° 204.62° Asphalt 0 ft / 0 m 194 ft / 59 m
24 148 ft / 45 m 9,215 ft / 2,809 m 225.30° 245.44° Asphalt 0 ft / 0 m 197 ft / 60 m

Approach Navaids

Runway Type Ident Frequency Range Bearing (true) Bearing (mag) Slope Elevation
06 Localiser IBE 109.30 MHz 18 nm / 33 km 45.72° 65.87° - 48 ft / 15 m (AMSL)
06 Glidescope IBE 109.30 MHz 10 nm / 19 km 45.30° 65.45° 3.00° 48 ft / 15 m (AMSL)
06 DME IBE 109.30 MHz 18 nm / 33 km - - - 48 ft / 15 m (AMSL)

Popular Alternatives